SKY27 RJTT-RJFF

Flight info

Callsign SKY27
Flight time N/A
Altitude 38000
Route NINOX Y28 IPLES Y207 ARASI Y20 KIRIN
Aircraft B738/M-SDFGIRWYZ/S

Departure

Time 2026-05-07 10:34
Airport Tokyo Haneda International Airport (RJTT)

Arrival

Time N/A
Airport Fukuoka Airport (RJFF)
Time Latitude Longitude Altitude Speed Heading
2026-05-07 10:19 35.55245 139.78118 22 ft 0 kts 154°
2026-05-07 10:26 35.55252 139.78114 24 ft 2 kts 154°
2026-05-07 10:26 35.55267 139.78105 22 ft 2 kts 154°
2026-05-07 10:26 35.55282 139.78096 24 ft 2 kts 154°
2026-05-07 10:26 35.55298 139.78090 24 ft 2 kts 187°
2026-05-07 10:27 35.55313 139.78096 23 ft 2 kts 218°
2026-05-07 10:27 35.55323 139.78109 26 ft 0 kts 242°
2026-05-07 10:29 35.55320 139.78102 25 ft 4 kts 250°
2026-05-07 10:29 35.55304 139.78047 22 ft 9 kts 242°
2026-05-07 10:29 35.55273 139.77980 22 ft 9 kts 240°
2026-05-07 10:30 35.55226 139.77851 22 ft 8 kts 292°
2026-05-07 10:30 35.55270 139.77806 24 ft 8 kts 327°
2026-05-07 10:30 35.55318 139.77771 23 ft 8 kts 329°
2026-05-07 10:30 35.55367 139.77735 22 ft 9 kts 329°
2026-05-07 10:31 35.55432 139.77689 23 ft 12 kts 329°
2026-05-07 10:31 35.55513 139.77632 22 ft 15 kts 331°
2026-05-07 10:31 35.55610 139.77566 22 ft 17 kts 330°
2026-05-07 10:31 35.55717 139.77488 24 ft 19 kts 330°
2026-05-07 10:32 35.55834 139.77406 23 ft 19 kts 330°
2026-05-07 10:32 35.55917 139.77343 24 ft 11 kts 316°
2026-05-07 10:32 35.55912 139.77264 23 ft 10 kts 224°
2026-05-07 10:32 35.55855 139.77214 23 ft 10 kts 215°
2026-05-07 10:33 35.55799 139.77166 22 ft 10 kts 215°
2026-05-07 10:33 35.55745 139.77120 23 ft 9 kts 211°
2026-05-07 10:33 35.55696 139.77125 22 ft 0 kts 151°
2026-05-07 10:33 35.55694 139.77126 22 ft 5 kts 150°
2026-05-07 10:34 35.55461 139.77290 22 ft 73 kts 150°
2026-05-07 10:34 35.54834 139.77733 23 ft 132 kts 150°
2026-05-07 10:34 35.53934 139.78341 361 ft 149 kts 154°
2026-05-07 10:34 35.52989 139.78962 820 ft 160 kts 153°
2026-05-07 10:35 35.52002 139.79648 1410 ft 167 kts 154°
2026-05-07 10:35 35.50984 139.80392 1970 ft 175 kts 154°
2026-05-07 10:35 35.49885 139.81193 2249 ft 191 kts 154°
2026-05-07 10:35 35.48698 139.82052 2515 ft 206 kts 154°
2026-05-07 10:36 35.47400 139.82976 2664 ft 225 kts 154°
2026-05-07 10:36 35.45969 139.83988 2829 ft 248 kts 153°
2026-05-07 10:36 35.44451 139.85077 3279 ft 257 kts 153°
2026-05-07 10:36 35.42871 139.86138 3806 ft 261 kts 162°
2026-05-07 10:37 35.41137 139.86343 4562 ft 249 kts 193°
2026-05-07 10:37 35.39560 139.85517 5025 ft 253 kts 219°
2026-05-07 10:37 35.38384 139.83941 5699 ft 254 kts 236°
2026-05-07 10:37 35.37511 139.82033 6224 ft 258 kts 243°
2026-05-07 10:38 35.37031 139.79905 6774 ft 264 kts 267°
2026-05-07 10:38 35.37372 139.77694 7458 ft 267 kts 290°
2026-05-07 10:38 35.38428 139.75810 8135 ft 276 kts 313°
2026-05-07 10:38 35.39989 139.74406 8811 ft 281 kts 322°
2026-05-07 10:39 35.41643 139.73113 9504 ft 282 kts 319°
2026-05-07 10:39 35.42967 139.71413 10066 ft 274 kts 292°
2026-05-07 10:39 35.43609 139.69206 10466 ft 282 kts 283°
2026-05-07 10:39 35.44165 139.66838 10840 ft 293 kts 283°
2026-05-07 10:40 35.44763 139.64407 11259 ft 304 kts 284°
2026-05-07 10:40 35.45401 139.61888 11622 ft 315 kts 284°
2026-05-07 10:40 35.46064 139.59283 12037 ft 326 kts 284°
2026-05-07 10:40 35.46765 139.56591 12418 ft 335 kts 285°
2026-05-07 10:41 35.47494 139.53849 12934 ft 341 kts 285°
2026-05-07 10:41 35.48216 139.51044 13472 ft 346 kts 283°
2026-05-07 10:41 35.48700 139.48124 13815 ft 353 kts 274°
2026-05-07 10:41 35.48865 139.45093 14286 ft 357 kts 270°
2026-05-07 10:42 35.48933 139.42047 14871 ft 358 kts 270°
2026-05-07 10:42 35.48996 139.38974 15445 ft 361 kts 270°
2026-05-07 10:42 35.49077 139.35888 15970 ft 365 kts 271°
2026-05-07 10:42 35.49179 139.32798 16475 ft 368 kts 271°
2026-05-07 10:43 35.49298 139.29602 16992 ft 372 kts 271°
2026-05-07 10:43 35.49421 139.26463 17502 ft 375 kts 272°
2026-05-07 10:43 35.49550 139.23269 18110 ft 375 kts 272°
2026-05-07 10:43 35.49677 139.20046 18482 ft 380 kts 272°
2026-05-07 10:44 35.49804 139.16802 18881 ft 382 kts 271°
2026-05-07 10:44 35.49804 139.13545 19391 ft 381 kts 266°
2026-05-07 10:44 35.49654 139.10302 19913 ft 381 kts 265°
2026-05-07 10:44 35.49459 139.07057 20408 ft 382 kts 264°
2026-05-07 10:45 35.49261 139.03795 20857 ft 384 kts 264°
2026-05-07 10:45 35.49072 139.00533 21350 ft 384 kts 264°
2026-05-07 10:45 35.48894 138.97251 21761 ft 387 kts 264°
2026-05-07 10:45 35.48724 138.93948 22231 ft 387 kts 264°
2026-05-07 10:46 35.48568 138.90660 22712 ft 387 kts 263°
2026-05-07 10:46 35.48403 138.87360 23149 ft 387 kts 263°
2026-05-07 10:46 35.48235 138.84074 23685 ft 386 kts 263°
2026-05-07 10:46 35.48066 138.80783 24008 ft 387 kts 263°
2026-05-07 10:47 35.47897 138.77478 24295 ft 389 kts 263°
2026-05-07 10:47 35.47729 138.74161 24601 ft 390 kts 263°
2026-05-07 10:47 35.47559 138.70840 24926 ft 390 kts 263°
2026-05-07 10:47 35.47388 138.67517 25236 ft 391 kts 263°
2026-05-07 10:48 35.47214 138.64190 25565 ft 391 kts 263°
2026-05-07 10:48 35.47039 138.60859 25862 ft 392 kts 263°
2026-05-07 10:48 35.46862 138.57515 26150 ft 393 kts 263°
2026-05-07 10:48 35.46684 138.54165 26402 ft 395 kts 263°
2026-05-07 10:49 35.46502 138.50797 26701 ft 396 kts 263°
2026-05-07 10:49 35.46323 138.47424 26984 ft 397 kts 263°
2026-05-07 10:49 35.46142 138.44038 27215 ft 399 kts 263°
2026-05-07 10:49 35.45955 138.40635 27398 ft 401 kts 263°
2026-05-07 10:50 35.45765 138.37237 27652 ft 400 kts 262°
2026-05-07 10:50 35.45552 138.33829 27939 ft 401 kts 263°
2026-05-07 10:50 35.45398 138.30422 28103 ft 400 kts 263°
2026-05-07 10:50 35.45223 138.27010 28328 ft 401 kts 263°
2026-05-07 10:51 35.45032 138.23603 28577 ft 400 kts 262°
2026-05-07 10:51 35.44839 138.20192 28858 ft 401 kts 263°
2026-05-07 10:51 35.44648 138.16819 29027 ft 402 kts 263°
2026-05-07 10:51 35.44456 138.13372 29508 ft 398 kts 262°
2026-05-07 10:52 35.44267 138.10000 29988 ft 395 kts 262°
2026-05-07 10:52 35.44078 138.06694 30290 ft 394 kts 262°
2026-05-07 10:52 35.43884 138.03343 30517 ft 394 kts 262°
2026-05-07 10:52 35.43690 137.99997 30768 ft 394 kts 262°
2026-05-07 10:53 35.43495 137.96648 31077 ft 392 kts 262°
2026-05-07 10:53 35.43292 137.93324 31360 ft 391 kts 262°
2026-05-07 10:53 35.43102 137.90008 31662 ft 390 kts 262°
2026-05-07 10:53 35.42914 137.86698 31965 ft 389 kts 261°
2026-05-07 10:54 35.42722 137.83392 32275 ft 387 kts 261°
2026-05-07 10:54 35.42529 137.80108 32596 ft 386 kts 261°
2026-05-07 10:54 35.42396 137.77892 32736 ft 386 kts 261°
2026-05-07 10:54 35.42170 137.74651 32927 ft 386 kts 260°
2026-05-07 10:55 35.41921 137.71383 33221 ft 384 kts 260°
2026-05-07 10:55 35.41673 137.68143 33571 ft 381 kts 259°
2026-05-07 10:55 35.41425 137.64915 33828 ft 380 kts 259°
2026-05-07 10:55 35.41179 137.61692 34034 ft 379 kts 259°
2026-05-07 10:56 35.40935 137.58477 34333 ft 377 kts 259°
2026-05-07 10:56 35.40688 137.55299 34727 ft 371 kts 258°
2026-05-07 10:56 35.40364 137.52177 34975 ft 369 kts 257°
2026-05-07 10:56 35.39985 137.49057 35075 ft 372 kts 257°
2026-05-07 10:57 35.39199 137.42748 35244 ft 376 kts 257°
2026-05-07 10:57 35.38811 137.39569 35376 ft 377 kts 257°
2026-05-07 10:57 35.38430 137.36397 35545 ft 376 kts 257°
2026-05-07 10:58 35.38053 137.33228 35740 ft 374 kts 257°
2026-05-07 10:58 35.37691 137.30175 35915 ft 373 kts 257°
2026-05-07 10:58 35.36937 137.23855 35941 ft 376 kts 257°
2026-05-07 10:59 35.36183 137.17550 35931 ft 373 kts 257°
2026-05-07 10:59 35.35430 137.11288 35936 ft 370 kts 257°
2026-05-07 11:00 35.34675 137.05061 35919 ft 370 kts 257°
2026-05-07 11:00 35.33918 136.98832 35921 ft 369 kts 257°
2026-05-07 11:01 35.33163 136.92642 35928 ft 368 kts 257°
2026-05-07 11:01 35.32404 136.86443 35925 ft 367 kts 256°
2026-05-07 11:02 35.31642 136.80256 35925 ft 367 kts 256°